Theta_e
363 353 354 358 354 353 351 353 360 364 365 366 365 365 366 362 360 364 359 360 357 346
363 362 356 365 359 355 361 353 357 360 363 364 365 366 366 360 363 363 363 361 361 357
358 361 362 361 362 362 358 360 358 359 360 360 363 365 367 362 364 364 360 359 362 362
357 358 359 358 360 362 361 361 362 360 359 358 362 364 365 364 362 364 364 363 361 364
360 361 357 359 359 362 362 362 362 362 360 359 360 364 364 362 359 360 361 363 363 362
356 357 359 360 359 363 362 362 361 361 361 360 360 362 364 363 362 360 361 362 363 363
356 358 357 363 364 361 364 362 362 362 362 361 360 359 361 362 362 361 361 363 363 364
362 362 363 364 365 364 364 363 363 363 363 362 359 355 360 360 360 361 361 362 364 365
365 364 364 366 367 367 365 366 365 362 362 361 357 340 338 351 357 360 361 361 363 365
365 364 365 366 367 366 366 365 366 362 362 364 363 334 333 338 356 356 360 365 362 360
364 365 366 366 367 368 365 365 364 363 366 366 365 333 330 335 357 360 363 364 364 366
364 364 363 363 364 364 364 363 363 363 365 365 367 330 329 336 356 356 362 363 366 367
365 366 364 365 367 367 364 364 361 362 365 353 366 334 326 335 356 357 354 364 368 340
365 366 367 369 368 367 364 364 364 362 366 369 362 362 323 321 358 354 353 352 352 355
Wind_Speed
17 13 13 13 10 10 9 8 8 10 10 10 9 8 6 7 7 6 6 6 6 5
17 17 14 13 13 10 9 8 9 11 12 11 11 10 8 7 7 5 6 7 7 7
19 18 15 13 13 13 12 12 10 12 13 12 12 11 10 8 8 8 7 7 7 7
19 19 17 16 15 14 14 12 13 12 12 13 12 12 11 10 8 10 9 9 8 9
19 19 19 17 17 15 15 15 15 13 13 14 13 13 13 13 12 12 11 11 11 11
22 21 19 18 18 16 16 16 16 15 14 14 14 13 14 13 13 12 12 12 12 12
22 21 20 18 17 18 16 16 17 16 15 15 15 15 14 14 14 13 13 13 13 13
20 19 19 18 18 17 17 16 17 16 16 16 15 13 16 15 15 14 14 14 14 15
19 19 19 18 18 17 18 17 16 17 17 17 13 14 14 15 14 15 14 14 15 14
20 20 20 19 18 18 18 17 17 17 17 17 17 13 16 16 16 15 14 14 14 14
20 20 18 19 19 17 17 17 16 17 16 16 15 14 16 16 18 15 16 15 15 15
21 20 19 19 18 17 16 16 16 16 17 17 16 16 18 15 16 17 17 16 17 16
18 19 19 18 18 16 16 16 15 17 17 18 18 15 18 18 14 15 15 15 16 16
19 18 17 16 15 16 16 14 16 16 14 16 17 16 18 19 16 14 14 14 13 14
Wind_Direction
203 209 214 210 226 214 224 214 212 198 212 212 204 207 201 207 226 184 203 211 246 258
202 213 211 219 210 223 222 231 221 215 217 214 213 208 199 231 204 219 212 205 218 242
204 207 216 213 220 221 223 222 233 217 223 220 215 210 207 216 208 214 218 227 198 237
206 207 210 215 216 221 222 212 220 217 218 215 211 209 209 226 234 209 220 233 228 226
202 206 206 212 214 215 217 214 216 215 213 216 217 211 214 217 223 220 225 226 227 232
204 203 207 206 213 208 212 214 218 217 214 214 216 215 216 221 225 227 228 230 228 230
201 201 204 204 206 210 207 212 216 216 216 218 217 217 219 218 227 229 228 231 231 230
199 198 198 199 201 205 206 211 216 214 216 218 219 218 218 224 225 228 232 235 230 231
192 195 197 196 197 200 204 208 211 216 216 217 222 209 205 220 226 230 233 237 239 244
191 197 196 194 195 199 202 206 210 215 216 217 221 204 198 201 229 233 231 234 240 243
191 196 195 195 196 196 200 205 208 214 216 217 218 199 196 196 221 233 242 239 236 240
192 190 193 197 196 197 201 203 207 213 215 217 224 195 196 191 222 232 237 241 242 242
193 193 193 194 194 195 199 204 208 212 214 216 223 199 196 195 226 229 235 233 236 230
193 195 193 193 194 194 199 203 208 213 216 219 216 222 192 190 220 233 231 238 241 238